Time,TemperatureF,DewpointF,PressureIn,WindDirection,WindDirectionDegrees,WindSpeedMPH,WindSpeedGustMPH,Humidity,HourlyPrecipIn,Conditions,Clouds,dailyrainin,SoftwareType,DateUTC
2013-07-26 00:08:00,71.4,39.0,29.79,SE,135,0.0,4.0,31,0.00,,,0.00,weatherlink.com 1.10,2013-07-26 06:08:00,
2013-07-26 00:23:00,76.3,36.0,29.79,North,9,7.0,10.0,23,0.00,,,0.00,weatherlink.com 1.10,2013-07-26 06:23:00,
2013-07-26 00:38:00,73.8,41.0,29.81,NW,313,0.0,8.0,31,0.00,,,0.00,weatherlink.com 1.10,2013-07-26 06:38:00,
2013-07-26 00:53:00,69.1,38.0,29.80,NNE,16,0.0,5.0,32,0.00,,,0.00,weatherlink.com 1.10,2013-07-26 06:53:00,
2013-07-26 01:08:00,65.7,42.0,29.81,East,96,0.0,3.0,43,0.00,,,0.00,weatherlink.com 1.10,2013-07-26 07:08:00,
2013-07-26 01:23:00,66.2,40.0,29.81,NNW,333,0.0,7.0,39,0.00,,,0.00,weatherlink.com 1.10,2013-07-26 07:23:00,
2013-07-26 01:38:00,69.0,39.0,29.82,NW,319,3.0,10.0,33,0.00,,,0.00,weatherlink.com 1.10,2013-07-26 07:38:00,
2013-07-26 01:53:00,68.4,40.0,29.82,NW,323,1.0,4.0,36,0.00,,,0.00,weatherlink.com 1.10,2013-07-26 07:53:00,
2013-07-26 02:07:00,61.9,45.0,29.83,SE,144,1.0,3.0,54,0.00,,,0.00,weatherlink.com 1.10,2013-07-26 08:07:00,
2013-07-26 02:22:00,59.3,44.0,29.83,East,100,2.0,3.0,58,0.00,,,0.00,weatherlink.com 1.10,2013-07-26 08:22:00,
2013-07-26 02:37:00,58.4,43.0,29.84,East,101,0.0,3.0,58,0.00,,,0.00,weatherlink.com 1.10,2013-07-26 08:37:00,
2013-07-26 02:53:00,58.3,41.0,29.84,East,101,0.0,2.0,53,0.00,,,0.00,weatherlink.com 1.10,2013-07-26 08:53:00,
2013-07-26 03:08:00,57.5,42.0,29.85,East,101,0.0,1.0,57,0.00,,,0.00,weatherlink.com 1.10,2013-07-26 09:08:00,
2013-07-26 03:23:00,56.3,43.0,29.86,East,101,1.0,2.0,62,0.00,,,0.00,weatherlink.com 1.10,2013-07-26 09:23:00,
2013-07-26 03:38:00,55.4,45.0,29.86,East,101,0.0,2.0,68,0.00,,,0.00,weatherlink.com 1.10,2013-07-26 09:38:00,
2013-07-26 03:53:00,55.1,43.0,29.86,East,101,0.0,0.0,65,0.00,,,0.00,weatherlink.com 1.10,2013-07-26 09:53:00,
2013-07-26 04:09:00,53.8,44.0,29.87,East,101,0.0,3.0,70,0.00,,,0.00,weatherlink.com 1.10,2013-07-26 10:09:00,
2013-07-26 04:23:00,53.4,44.0,29.88,East,101,0.0,0.0,71,0.00,,,0.00,weatherlink.com 1.10,2013-07-26 10:23:00,
2013-07-26 04:38:00,52.1,44.0,29.88,East,101,0.0,0.0,73,0.00,,,0.00,weatherlink.com 1.10,2013-07-26 10:38:00,
2013-07-26 04:53:00,51.7,44.0,29.88,East,101,0.0,0.0,75,0.00,,,0.00,weatherlink.com 1.10,2013-07-26 10:53:00,
2013-07-26 05:08:00,50.9,44.0,29.89,East,101,0.0,0.0,78,0.00,,,0.00,weatherlink.com 1.10,2013-07-26 11:08:00,
2013-07-26 05:23:00,50.7,44.0,29.89,East,101,0.0,0.0,78,0.00,,,0.00,weatherlink.com 1.10,2013-07-26 11:23:00,
2013-07-26 05:38:00,50.6,43.0,29.90,East,101,0.0,1.0,75,0.00,,,0.00,weatherlink.com 1.10,2013-07-26 11:38:00,
2013-07-26 05:53:00,50.0,46.0,29.90,East,101,0.0,0.0,86,0.00,,,0.00,weatherlink.com 1.10,2013-07-26 11:53:00,
2013-07-26 06:08:00,49.5,46.0,29.91,East,101,0.0,0.0,86,0.00,,,0.00,weatherlink.com 1.10,2013-07-26 12:08:00,
2013-07-26 06:27:00,48.9,44.0,29.91,East,101,0.0,0.0,83,0.00,,,0.00,weatherlink.com 1.10,2013-07-26 12:27:00,
2013-07-26 06:39:00,48.3,44.0,29.91,East,101,0.0,0.0,86,0.00,,,0.00,weatherlink.com 1.10,2013-07-26 12:39:00,
2013-07-26 06:53:00,48.1,44.0,29.92,East,101,0.0,0.0,86,0.00,,,0.00,weatherlink.com 1.10,2013-07-26 12:53:00,
2013-07-26 07:09:00,48.2,45.0,29.92,East,101,0.0,1.0,88,0.00,,,0.00,weatherlink.com 1.10,2013-07-26 13:09:00,
2013-07-26 07:24:00,49.8,46.0,29.93,East,101,0.0,0.0,85,0.00,,,0.00,weatherlink.com 1.10,2013-07-26 13:24:00,
2013-07-26 07:39:00,51.7,45.0,29.93,East,101,0.0,0.0,79,0.00,,,0.00,weatherlink.com 1.10,2013-07-26 13:39:00,
2013-07-26 07:54:00,53.9,47.0,29.93,East,101,0.0,0.0,77,0.00,,,0.00,weatherlink.com 1.10,2013-07-26 13:54:00,
2013-07-26 08:09:00,56.8,45.0,29.94,East,101,0.0,0.0,64,0.00,,,0.00,weatherlink.com 1.10,2013-07-26 14:09:00,
2013-07-26 08:24:00,58.4,43.0,29.94,ESE,112,0.0,0.0,58,0.00,,,0.00,weatherlink.com 1.10,2013-07-26 14:24:00,
2013-07-26 08:39:00,60.2,44.0,29.95,ESE,111,0.0,1.0,56,0.00,,,0.00,weatherlink.com 1.10,2013-07-26 14:39:00,
2013-07-26 08:54:00,62.2,44.0,29.95,ESE,111,0.0,0.0,52,0.00,,,0.00,weatherlink.com 1.10,2013-07-26 14:54:00,
2013-07-26 09:09:00,64.4,45.0,29.95,ESE,111,0.0,0.0,49,0.00,,,0.00,weatherlink.com 1.10,2013-07-26 15:09:00,
2013-07-26 09:24:00,66.0,45.0,29.95,ESE,111,1.0,2.0,47,0.00,,,0.00,weatherlink.com 1.10,2013-07-26 15:24:00,
2013-07-26 09:40:00,67.8,46.0,29.94,ESE,111,1.0,1.0,45,0.00,,,0.00,weatherlink.com 1.10,2013-07-26 15:40:00,
2013-07-26 09:55:00,68.2,43.0,29.94,SE,137,1.0,5.0,41,0.00,,,0.00,weatherlink.com 1.10,2013-07-26 15:55:00,
2013-07-26 10:10:00,69.8,44.0,29.94,WNW,300,1.0,3.0,40,0.00,,,0.00,weatherlink.com 1.10,2013-07-26 16:10:00,
2013-07-26 10:25:00,72.0,45.0,29.93,North,5,0.0,4.0,38,0.00,,,0.00,weatherlink.com 1.10,2013-07-26 16:25:00,
2013-07-26 10:40:00,74.2,43.0,29.93,SW,230,1.0,3.0,33,0.00,,,0.00,weatherlink.com 1.10,2013-07-26 16:40:00,
2013-07-26 10:55:00,75.8,43.0,29.92,West,279,1.0,4.0,31,0.00,,,0.00,weatherlink.com 1.10,2013-07-26 16:55:00,
2013-07-26 11:10:00,77.1,42.0,29.91,WNW,302,2.0,4.0,28,0.00,,,0.00,weatherlink.com 1.10,2013-07-26 17:10:00,
2013-07-26 11:25:00,79.5,42.0,29.91,South,175,3.0,3.0,26,0.00,,,0.00,weatherlink.com 1.10,2013-07-26 17:25:00,
2013-07-26 11:40:00,80.3,38.0,29.90,SSE,161,2.0,4.0,22,0.00,,,0.00,weatherlink.com 1.10,2013-07-26 17:40:00,
2013-07-26 11:55:00,81.5,40.0,29.89,South,170,1.0,4.0,23,0.00,,,0.00,weatherlink.com 1.10,2013-07-26 17:55:00,
2013-07-26 12:10:00,83.4,45.0,29.88,WSW,251,1.0,4.0,26,0.00,,,0.00,weatherlink.com 1.10,2013-07-26 18:10:00,
2013-07-26 12:25:00,83.5,40.0,29.88,North,355,1.0,5.0,21,0.00,,,0.00,weatherlink.com 1.10,2013-07-26 18:25:00,
2013-07-26 12:40:00,84.5,43.0,29.87,WNW,298,2.0,5.0,23,0.00,,,0.00,weatherlink.com 1.10,2013-07-26 18:40:00,
2013-07-26 12:55:00,-999.0,-99.9,29.86,North,-999,-999.0,-999.0,-999,0.00,,,0.00,weatherlink.com 1.10,2013-07-26 18:55:00,
2013-07-26 13:10:00,-999.0,-99.9,29.86,North,-999,-999.0,-999.0,-999,0.00,,,0.00,weatherlink.com 1.10,2013-07-26 19:10:00,
2013-07-26 13:25:00,-999.0,-99.9,29.85,North,-999,-999.0,-999.0,-999,0.00,,,0.00,weatherlink.com 1.10,2013-07-26 19:25:00,
2013-07-26 13:40:00,-999.0,-99.9,29.84,North,-999,-999.0,-999.0,-999,0.00,,,0.00,weatherlink.com 1.10,2013-07-26 19:40:00,
2013-07-26 14:11:00,-999.0,-99.9,29.82,North,-999,-999.0,-999.0,-999,0.00,,,0.00,weatherlink.com 1.10,2013-07-26 20:11:00,
2013-07-26 14:26:00,-999.0,-99.9,29.82,North,-999,-999.0,-999.0,-999,0.00,,,0.00,weatherlink.com 1.10,2013-07-26 20:26:00,
2013-07-26 14:41:00,-999.0,-99.9,29.82,North,-999,-999.0,-999.0,-999,0.00,,,0.00,weatherlink.com 1.10,2013-07-26 20:41:00,
2013-07-26 15:26:00,-999.0,-99.9,29.80,North,-999,-999.0,-999.0,-999,0.00,,,0.00,weatherlink.com 1.10,2013-07-26 21:26:00,
2013-07-26 15:41:00,-999.0,-99.9,29.80,North,-999,-999.0,-999.0,-999,0.00,,,0.00,weatherlink.com 1.10,2013-07-26 21:41:00,
2013-07-26 15:56:00,-999.0,-99.9,29.79,North,-999,-999.0,-999.0,-999,0.00,,,0.00,weatherlink.com 1.10,2013-07-26 21:56:00,
2013-07-26 16:11:00,-999.0,-99.9,29.78,North,-999,-999.0,-999.0,-999,0.00,,,0.00,weatherlink.com 1.10,2013-07-26 22:11:00,
2013-07-26 16:26:00,-999.0,-99.9,29.78,North,-999,-999.0,-999.0,-999,0.00,,,0.00,weatherlink.com 1.10,2013-07-26 22:26:00,
2013-07-26 16:41:00,-999.0,-99.9,29.78,North,-999,-999.0,-999.0,-999,0.00,,,0.00,weatherlink.com 1.10,2013-07-26 22:41:00,
2013-07-26 16:56:00,-999.0,-99.9,29.77,North,-999,-999.0,-999.0,-999,0.00,,,0.00,weatherlink.com 1.10,2013-07-26 22:56:00,
2013-07-26 17:11:00,-999.0,-99.9,29.77,North,-999,-999.0,-999.0,-999,0.00,,,0.00,weatherlink.com 1.10,2013-07-26 23:11:00,
2013-07-26 17:27:00,-999.0,-99.9,29.77,North,-999,-999.0,-999.0,-999,0.00,,,0.00,weatherlink.com 1.10,2013-07-26 23:27:00,
2013-07-26 17:42:00,-999.0,-99.9,29.76,North,-999,-999.0,-999.0,-999,0.00,,,0.00,weatherlink.com 1.10,2013-07-26 23:42:00,
2013-07-26 17:57:00,-999.0,-99.9,29.76,North,-999,-999.0,-999.0,-999,0.00,,,0.00,weatherlink.com 1.10,2013-07-26 23:57:00,
2013-07-26 18:12:00,-999.0,-99.9,29.76,North,-999,-999.0,-999.0,-999,0.00,,,0.00,weatherlink.com 1.10,2013-07-27 00:12:00,
2013-07-26 18:27:00,-999.0,-99.9,29.76,North,-999,-999.0,-999.0,-999,0.00,,,0.00,weatherlink.com 1.10,2013-07-27 00:27:00,
2013-07-26 18:42:00,-999.0,-99.9,29.76,North,-999,-999.0,-999.0,-999,0.00,,,0.00,weatherlink.com 1.10,2013-07-27 00:42:00,
2013-07-26 18:57:00,-999.0,-99.9,29.76,North,-999,-999.0,-999.0,-999,0.00,,,0.00,weatherlink.com 1.10,2013-07-27 00:57:00,
2013-07-26 19:12:00,-999.0,-99.9,29.76,North,-999,-999.0,-999.0,-999,0.00,,,0.00,weatherlink.com 1.10,2013-07-27 01:12:00,
2013-07-26 19:27:00,-999.0,-99.9,29.76,North,-999,-999.0,-999.0,-999,0.00,,,0.00,weatherlink.com 1.10,2013-07-27 01:27:00,
2013-07-26 19:42:00,-999.0,-99.9,29.76,North,-999,-999.0,-999.0,-999,0.00,,,0.00,weatherlink.com 1.10,2013-07-27 01:42:00,
2013-07-26 19:57:00,-999.0,-99.9,29.76,North,-999,-999.0,-999.0,-999,0.00,,,0.00,weatherlink.com 1.10,2013-07-27 01:57:00,
2013-07-26 20:12:00,-999.0,-99.9,29.76,North,-999,-999.0,-999.0,-999,0.00,,,0.00,weatherlink.com 1.10,2013-07-27 02:12:00,
2013-07-26 20:27:00,-999.0,-99.9,29.76,North,-999,-999.0,-999.0,-999,0.00,,,0.00,weatherlink.com 1.10,2013-07-27 02:27:00,
2013-07-26 20:43:00,-999.0,-99.9,29.76,North,-999,-999.0,-999.0,-999,0.00,,,0.00,weatherlink.com 1.10,2013-07-27 02:43:00,
2013-07-26 20:58:00,-999.0,-99.9,29.76,North,-999,-999.0,-999.0,-999,0.00,,,0.00,weatherlink.com 1.10,2013-07-27 02:58:00,
2013-07-26 21:13:00,-999.0,-99.9,29.76,North,-999,-999.0,-999.0,-999,0.00,,,0.00,weatherlink.com 1.10,2013-07-27 03:13:00,
2013-07-26 21:28:00,-999.0,-99.9,29.77,North,-999,-999.0,-999.0,-999,0.00,,,0.00,weatherlink.com 1.10,2013-07-27 03:28:00,
2013-07-26 21:43:00,-999.0,-99.9,29.77,North,-999,-999.0,-999.0,-999,0.00,,,0.00,weatherlink.com 1.10,2013-07-27 03:43:00,
2013-07-26 21:58:00,-999.0,-99.9,29.77,North,-999,-999.0,-999.0,-999,0.00,,,0.00,weatherlink.com 1.10,2013-07-27 03:58:00,
2013-07-26 22:13:00,-999.0,-99.9,29.77,North,-999,-999.0,-999.0,-999,0.00,,,0.00,weatherlink.com 1.10,2013-07-27 04:13:00,
2013-07-26 22:28:00,-999.0,-99.9,29.77,North,-999,-999.0,-999.0,-999,0.00,,,0.00,weatherlink.com 1.10,2013-07-27 04:28:00,
2013-07-26 22:43:00,-999.0,-99.9,29.77,North,-999,-999.0,-999.0,-999,0.00,,,0.00,weatherlink.com 1.10,2013-07-27 04:43:00,
2013-07-26 22:58:00,-999.0,-99.9,29.77,North,-999,-999.0,-999.0,-999,0.00,,,0.00,weatherlink.com 1.10,2013-07-27 04:58:00,
2013-07-26 23:13:00,-999.0,-99.9,29.77,North,-999,-999.0,-999.0,-999,0.00,,,0.00,weatherlink.com 1.10,2013-07-27 05:13:00,
2013-07-26 23:28:00,-999.0,-99.9,29.77,North,-999,-999.0,-999.0,-999,0.00,,,0.00,weatherlink.com 1.10,2013-07-27 05:28:00,
2013-07-26 23:43:00,-999.0,-99.9,29.78,North,-999,-999.0,-999.0,-999,0.00,,,0.00,weatherlink.com 1.10,2013-07-27 05:43:00,
2013-07-26 23:58:00,76.8,34.0,29.78,NNW,336,1.0,11.0,21,0.00,,,0.00,weatherlink.com 1.10,2013-07-27 05:58:00,